Location: Biltmore Gardens
(41.6070°N, 83.4666°W)
Time: 15:19:19
(UTC+00:00)

Helios 1B rocket - Pass Details

Date: 14 July 2020
Orbit: 574 x 584 km, 98.1° (Epoch: 12 August)

Event Time Altitude Azimuth Distance (km) Brightness Sun altitude
Rises 05:17:45 0° 27° (NNE) 2,803 6.8 -26.6°
Reaches altitude 10° 05:20:16 10° 42° (NE) 1,897 5.6 -26.6°
Enters shadow 05:22:21 20° 69° (ENE) 1,352 4.4 -26.7°
